Terminal Aerodrome Forecast
Issued by NWS

Home | Current Version | Previous Version | Text Only | Print | Product List | Glossary On
Versions: 1 2 3 4 5 6 7 8 9 10
000
FTUS42 KMHX 291100
TAFOAJ
TAF
KOAJ 291140Z 2912/3012 01004KT 4SM BR OVC010
     FM291400 03005KT 3SM -RA BR OVC007
     FM300500 02004KT 5SM BR OVC003
      AMD LTD TO CLD VIS AND WIND=

USA.gov is the U.S. government's official web portal to all federal, state and local government web resources and services.